DELTA 1 DEB, 21370

Orbit data source: Space-Track

DELTA 1 DEB, 21370 is space debris in SSO originally from a launch on Thu, 12 Jun 1975 UTC launched from the Air Force Western Test Range (AFWTR). Debris objects in space refer to the collection of defunct objects orbiting the Earth. Examples of debris include non-operational satellites, rocket bodies, and fragments generated from explosions, collisions, or faulty payload assembly.

Loading next visibility...
Identifier
21370, 1975-052CQ
Orbit
SSO
Country
Flag of USUS
Related business
Manufacturer
Unknown
Mission
Spacecraft
Bus & Motor
Unknown
Mass
Unknown
Launch date (UTC)
1975-06-12 (51 years ago)
Launch vehicle
Unknown
Launch site
Air Force Western Test Range (AFWTR)
Object type
Payload
Rocket body
Debris
Shape & HBR
Unknown shape, 0.1 m
Radar Cross Section
Medium (>0.1 m² and <1 m²)

Expand to show TLE details & history
Last TLE update: 2 days ago

TLE from 2 days ago
0 DELTA 1 DEB
1 21370U 75052CQ  26171.29520154  .00000008  00000-0  10800-3 0  9997
2 21370  99.9222 291.8652 0079885 187.4692 228.4410 13.28190255700133
Epoch: 2026-06-20T07:05Z
TLE epoch observation values (Epoch: 2026-06-20T07:05:05.413Z)
Latitude
54.11024°
Longitude
-96.83655°
Altitude
1,202.577 km
Speed
7.238 km/s
True Right ascension
18h 31m 47s
True Declination
53° 57' 23"
Sunlit
Object was in daylight at epoch
Visualization orbit readout
Latitude
Unknown
Longitude
Unknown
Altitude
Unknown
Speed
Unknown
Apparent Right ascension
Unknown
Apparent Declination
Unknown
Sunlit
N/A
Visualization observer readout
Local Sidereal Time
16:06:10
Azimuth
Unknown
Elevation
Unknown
Doppler factor
Unknown
Orbital elements
Apogee altitude
1,211.085 km
Perigee altitude
1,090.793 km
Semi-major axis
7,529.076 km
Eccentricity
0.00799
Inclination
99.9222°
RAAN
291.8652°
Arg. of periapsis
187.4692°
True anomaly
227.76054°
Mean anomaly
228.441°
Eccentric anomaly
228.10032°
Mean motion
3.32224 °/min
Orbital period
108.36 mins
BSTAR
0.000108
Loading maneuver chart data...
Computing Atmospheric mass density...
Loading historical data...
Loading historical data...
Loading historical data...
Loading historical data...
Loading historical data...
Loading historical data...
Loading historical data...

Documentation

Showing up to 5 results
|